Location: Gipe Farm
(40.9466°N, 95.5370°W)
Time: 07:55:05
(UTC-05:00)

Daily predictions for brighter satellites

Satellite Brightness Start Highest point End
(mag) Time Altitude Azimuth Time Altitude Azimuth Time Altitude Azimuth
Cosmos 2278 Rocket 2.7 21:07:06 10° NNW 21:12:44 65° WSW 21:18:20 10° S
Cosmos 2228 3.9 21:12:55 10° N 21:16:55 33° ENE 21:20:55 10° SE
Cosmos 1025 Rocket 3.2 21:14:31 10° S 21:18:55 82° W 21:23:20 10° N
Cosmos 494 Rocket 4.1 21:14:10 10° S 21:19:07 54° ESE 21:24:07 10° NNE
CZ-2D R/B 4.3 21:16:04 10° S 21:19:49 46° W 21:23:37 10° NNW
Aureole 2 Rocket 3.5 21:17:08 10° SSE 21:20:42 31° ESE 21:24:00 10° NE
USA 186 2.6 21:18:22 10° S 21:21:12 43° W 21:23:51 10° NNW
COSMOS 2455 4.1 21:17:50 10° SSE 21:21:52 19° ESE 21:25:53 10° ENE
Cosmos 1892 Rocket 3.6 21:18:44 10° S 21:23:09 76° E 21:27:37 10° N
Cosmos 1939 Rocket 3.5 21:19:19 10° SE 21:23:14 42° ENE 21:27:10 10° N
CZ-4 DEB 4.0 21:21:27 10° S 21:24:32 42° W 21:27:39 10° NNW
Cosmos 2219 Rocket 4.2 21:20:25 10° WSW 21:25:31 34° WNW 21:30:38 10° N
Cosmos 2369 Rocket 4.3 21:23:26 10° NNE 21:26:19 14° NE 21:29:13 10° ENE
Cosmos 1666 3.2 21:27:22 10° N 21:31:07 42° ENE 21:34:49 10° SSE
SPOT 5 3.4 21:27:05 10° SE 21:31:09 36° ENE 21:35:08 10° N
SL-16 R/B 2.2 21:26:15 10° SSW 21:31:54 84° ESE 21:37:36 10° NNE
Lacrosse 5 rocket 2.2 21:31:23 10° WSW 21:35:09 51° NW 21:39:07 10° NE
CZ-4 SHROUD 4.0 21:34:31 12° SE 21:37:07 37° ENE 21:40:05 10° N
Tsikada Rocket 4.5 21:35:33 10° SSE 21:41:33 44° E 21:47:33 10° NNE
Cosmos 1331 Rocket 4.1 21:36:23 10° NNW 21:41:37 78° WSW 21:46:46 10° SSE
Cosmos 1743 3.6 21:38:57 10° NNW 21:42:41 49° W 21:46:23 10° SSW
Lacrosse 5 4.4 21:39:07 10° W 21:43:13 24° NNW 21:47:21 10° NNE
DEBRIS 2.7 21:37:16 10° WNW 21:43:23 81° NNE 21:45:18 16° ESE
Meteor 1-23 Rocket 4.3 21:41:07 10° S 21:46:45 85° W 21:52:30 10° N
Cosmos 1726 Rocket 4.3 21:43:44 10° NNW 21:48:05 53° W 21:52:22 10° S
Cosmos 1302 Rocket 4.0 21:45:42 10° NNW 21:50:57 75° ENE 21:55:31 14° SSE
Cosmos 2285 Rocket 4.1 21:45:20 10° NNW 21:51:40 81° WSW 21:58:01 10° SSE
Okean 2 3.7 21:47:44 10° SSW 21:51:54 72° W 21:56:06 10° N
ALOS 4.1 21:48:52 10° SSW 21:52:56 29° W 21:57:00 10° NW
MetOp-B 4.5 21:49:01 14° SE 21:53:28 51° ENE 21:58:39 10° N
SeaSat 1 2.5 21:50:09 14° SE 21:54:23 75° ENE 21:59:20 10° NNW
GRACE-1 4.2 21:53:08 10° NNE 21:55:57 48° E 21:57:34 21° SSE
GRACE-2 4.2 21:53:34 10° NNE 21:56:23 48° E 21:57:59 21° SSE
Terra 3.9 21:56:29 10° E 21:58:51 14° ENE 22:01:13 10° NNE
CZ-4B R/B 3.9 21:54:05 10° NNE 21:58:56 44° E 22:03:36 11° S
Cosmos 2058 Rocket 3.8 21:55:01 10° NNW 21:59:16 52° W 22:03:29 10° S
Cosmos 1603 3.8 21:55:17 10° S 22:00:45 56° ESE 22:06:13 10° NNE
UNK 4.3 21:55:53 10° NNE 22:01:13 59° ESE 22:06:48 10° S
APEX 3.7 21:59:36 10° NNW 22:03:38 82° WSW 22:07:38 17° SSE
Cosmos 1464 Rocket 4.2 21:58:14 10° NNW 22:04:20 70° W 22:10:26 10° S
Timation 1 Rocket 4.4 21:58:41 10° NNW 22:04:44 79° ENE 22:09:17 18° SSE
Cosmos 1602 Rocket 3.5 22:02:05 10° S 22:06:33 81° E 22:11:03 10° N
Cosmos 1461 2.9 22:04:26 10° NNW 22:08:44 73° ENE 22:11:08 24° SE
CZ-2C R/B 3.6 22:08:31 10° WSW 22:09:20 11° W 22:10:10 10° WNW
PSLV R/B 3.4 22:09:29 20° S 22:11:28 67° W 22:14:34 10° NNW
Cosmos 1812 Rocket 3.5 22:12:54 10° N 22:17:17 71° E 22:19:55 23° SSE
Cosmos 2034 Rocket 4.3 22:15:56 10° NNW 22:22:16 68° W 22:28:23 11° S
ATLAS 3B R/B 3.5 22:16:52 13° SSE 22:22:42 34° ESE 22:29:20 10° NE
Envisat 3.5 22:19:51 12° S 22:24:24 55° W 22:29:25 10° NNW
Cosmos 1634 Rocket 4.4 22:18:34 10° N 22:24:31 47° ENE 22:27:54 25° SE
USA 245 4.3 22:20:30 20° SSE 22:24:49 73° ENE 22:30:12 10° N
Cosmos 1943 3.7 22:23:34 23° SSE 22:26:24 37° ESE 22:31:35 10° NE
YAOGAN 6 2.6 22:24:55 31° SSE 22:26:35 78° ENE 22:30:21 10° N
H-2A R/B 4.1 22:26:48 10° SSW 22:30:11 23° W 22:33:41 10° NW
USA 234 3.3 22:30:35 24° SE 22:34:49 82° SW 22:41:26 10° NW
USA 81 4.1 22:30:36 10° N 22:35:51 61° E 22:38:24 30° SSE
Abrixas rocket 3.0 22:32:50 10° WNW 22:36:04 40° SW 22:36:37 36° SSW
Cosmos 1943 Rocket 4.0 22:35:20 10° N 22:39:19 20° NE 22:42:15 14° E
Cosmos 2279 Rocket 4.5 22:44:18 10° N 22:50:15 44° ENE 22:52:43 31° SE
CZ-4C R/B 3.4 22:51:16 44° SSE 22:52:33 76° ENE 22:56:42 10° N
PSLV R/B 3.4 22:52:14 10° WSW 22:55:24 60° SSW 22:55:24 60° SSW
SAR-Lupe-2 3.9 22:56:08 47° E 22:56:21 48° ENE 22:59:49 10° N
Cosmos 1953 Rocket 3.5 22:55:36 46° SSE 22:56:42 66° E 23:01:06 10° NNE
Atlas Centaur 2 3.5 22:50:53 10° SW 22:58:09 38° S 23:00:56 30° SE
H-2A R/B 2.1 22:59:59 41° SE 23:01:28 58° ENE 23:06:23 10° N
CZ-4 R/B 4.3 22:58:03 10° N 23:03:00 66° WNW 23:06:34 19° SSW
Cosmos 1992 Rocket 4.0 22:58:49 10° NNW 23:04:04 80° WSW 23:05:55 41° S
Cosmos 2346 Rocket 4.5 23:01:24 23° S 23:05:28 82° W 23:11:39 10° N
COSMOS 2455 3.1 23:01:11 10° SW 23:07:10 68° WNW 23:13:10 10° NNE
DELTA 2 DEB (DPAF) 4.2 23:07:16 45° S 23:08:35 72° WSW 23:13:06 10° NNW
SPOT 1/Viking Rocket 4.4 23:07:22 24° SSW 23:10:04 44° W 23:15:00 10° NNW
Cosmos 2369 Rocket 2.1 23:05:35 10° NNW 23:11:18 82° ENE 23:13:08 45° SSE
ARGOS 3.7 23:10:54 29° SSW 23:13:27 54° W 23:18:47 10° NNW
IGS 5A 3.5 23:13:13 59° ESE 23:13:37 63° ENE 23:17:45 10° N
Cosmos 1953 3.5 23:10:15 10° NNE 23:13:33 29° ENE 23:13:33 29° ENE
Spot 4 4.0 23:14:25 49° ESE 23:15:21 60° ENE 23:20:04 10° N
Geosat 4.3 23:13:13 10° NNE 23:18:13 66° WNW 23:22:14 16° SW
DMSP B5D2-2 4.0 23:14:06 10° NNE 23:19:23 69° ESE 23:20:42 49° SSE
Cosmos 1190 Rocket 4.0 23:17:39 32° SSW 23:20:11 83° WNW 23:25:33 10° NNE
Landsat 7 3.9 23:18:56 47° SSW 23:20:13 69° WSW 23:24:58 10° NNW
Cosmos-2242 3.4 23:17:32 10° N 23:21:49 48° E 23:21:58 48° E
Meteor 1-22 Rocket 4.4 23:22:30 10° NNW 23:28:01 68° W 23:29:58 41° SSW
Spot 2 4.3 23:23:24 10° NNE 23:28:10 89° E 23:29:20 54° SSW
Lacrosse 4 Rocket 1.3 23:31:19 77° NE 23:31:19 77° NE 23:35:09 10° NNE
Cosmos 1758 Rocket 3.8 23:30:16 49° SW 23:31:12 64° W 23:35:33 10° N
COSMOS 2406 4.1 23:32:43 33° E 23:32:43 33° E 23:37:22 10° NE
Cosmos 2263 4.1 23:27:09 10° NNW 23:32:47 88° ENE 23:34:04 56° SSE
CARTOSAT-1 3.7 23:34:42 58° SW 23:35:08 62° W 23:39:26 10° NNW
Terra 1.9 23:35:13 57° SSW 23:36:00 68° WSW 23:40:45 10° NNW
Cosmos 676 Rocket 3.9 23:35:11 56° S 23:36:22 82° ESE 23:41:43 10° NNE
Cosmos 1346 Rocket 3.8 23:38:36 35° WSW 23:39:21 39° WNW 23:43:03 10° N
Kosmos-1675 4.3 23:46:03 41° WSW 23:47:10 63° NW 23:56:59 10° NNE
Cosmos 1140 Rocket 3.7 23:49:34 52° E 23:49:34 52° E 23:54:27 10° NNE
